Waarnemingen

Advertentie
Mijn weer
Chassiron, Frankrijk (7314): temperatuur & dauwpunt: 13.11.2017 20:00:00 - 19.11.2017 20:00:00 (CET)Chassiron, Frankrijk (7314): windsnelheid & windstoten: 13.11.2017 20:00:00 - 19.11.2017 20:00:00 (CET)Chassiron, Frankrijk (7314): windrichting: 13.11.2017 20:00:00 - 19.11.2017 20:00:00 (CET)Chassiron, Frankrijk (7314): luchtdruk: 13.11.2017 20:00:00 - 19.11.2017 20:00:00 (CET)Chassiron, Frankrijk (7314): zicht: 13.11.2017 20:00:00 - 19.11.2017 20:00:00 (CET)Chassiron, Frankrijk (7314): neerslag: 13.11.2017 20:00:00 - 19.11.2017 20:00:00 (CET)
Datum & Tijd tt [°C] td [°C] ff [km/u] ff [kn] fx [km/u] fx [kn] dd ppp [hPa] vv [km] rr [mm]
19.11.2017 20:00:00 12,3 9,7 10 5 19 10 NW 1026,5 - 0,0
19.11.2017 19:00:00 12,6 9,8 14 8 21 12 NW 1026,2 13 0,0
19.11.2017 18:00:00 12,6 9,4 15 8 22 12 NW 1026,0 - 0,0
19.11.2017 17:00:00 12,9 8,8 14 7 21 12 WNW 1025,8 - 0,0
19.11.2017 16:00:00 13,3 9,2 12 7 19 10 W 1025,8 16 0,0
19.11.2017 15:00:00 13,3 9,0 12 7 16 9 W 1026,1 - 0,0
19.11.2017 14:00:00 13,4 9,1 10 5 16 9 W 1026,3 - 0,0
19.11.2017 13:00:00 12,8 8,7 9 5 18 10 W 1026,7 - 0,0
19.11.2017 12:00:00 11,9 8,6 9 5 15 8 WNW 1027,0 - 0,0
19.11.2017 11:00:00 11,0 8,7 8 5 13 7 W 1027,0 - 0,0
19.11.2017 10:00:00 9,5 8,6 8 5 12 6 WZW 1026,8 - 0,0
19.11.2017 09:00:00 8,1 7,8 7 4 11 6 ZZW 1026,4 - 0,0
19.11.2017 08:00:00 5,3 4,7 6 3 7 4 Z 1026,1 - 0,0
19.11.2017 07:00:00 5,7 5,0 3 2 5 3 ZO 1026,1 0,2 0,0
19.11.2017 06:00:00 6,5 5,9 3 2 8 5 ONO 1026,0 - 0,0
19.11.2017 05:00:00 6,7 6,1 3 1 14 8 ONO 1026,1 - 0,0
19.11.2017 04:00:00 7,4 6,8 8 5 14 8 NNO 1026,3 0,8 0,0
19.11.2017 03:00:00 7,2 6,6 6 3 13 7 NO 1026,4 - 0,0
19.11.2017 02:00:00 7,0 6,3 8 5 14 8 NO 1026,4 - 0,0
19.11.2017 01:00:00 7,4 6,7 8 4 18 10 NO 1026,5 0,2 0,0
19.11.2017 00:00:00 7,9 6,7 14 8 20 11 NNO 1026,7 0,2 0,0
18.11.2017 23:00:00 8,4 6,9 13 7 19 10 NNO 1026,5 - 0,0
18.11.2017 22:00:00 8,7 6,7 10 6 23 13 NO 1026,5 8 0,0
18.11.2017 21:00:00 9,8 6,9 18 10 24 13 N 1026,5 - 0,0
18.11.2017 20:00:00 10,0 5,6 13 7 26 14 NO 1026,6 - 0,0
18.11.2017 19:00:00 10,5 6,3 18 10 26 14 NNO 1026,7 8 0,0
18.11.2017 18:00:00 10,6 6,2 16 9 22 12 NNO 1026,5 - 0,0
18.11.2017 17:00:00 10,7 6,3 16 8 24 13 NNO 1026,3 - 0,0
18.11.2017 16:00:00 10,9 6,0 17 9 23 13 NNO 1026,5 - 0,0
18.11.2017 15:00:00 10,8 6,7 15 8 20 11 N 1026,7 - 0,0
18.11.2017 14:00:00 10,8 6,7 14 8 22 12 NNO 1027,0 - 0,0
18.11.2017 13:00:00 10,3 6,3 13 7 22 12 NO 1027,3 6 0,0
18.11.2017 12:00:00 10,0 6,3 14 8 25 13 NO 1027,8 - 0,0
18.11.2017 11:00:00 9,2 6,5 14 8 32 17 ONO 1027,7 - 0,0
18.11.2017 10:00:00 8,6 6,6 22 12 33 18 NO 1027,6 3,5 0,0
18.11.2017 09:00:00 7,9 6,5 19 10 35 19 ONO 1027,4 - 0,0
18.11.2017 08:00:00 8,0 6,9 20 11 37 20 NO 1026,9 - 0,0
18.11.2017 07:00:00 7,9 7,0 22 12 37 20 NO 1026,7 2,0 0,0
18.11.2017 06:00:00 7,5 6,6 20 11 34 18 NO 1026,6 - 0,0
18.11.2017 05:00:00 8,7 7,1 17 9 31 17 ONO 1026,1 - 0,0
18.11.2017 04:00:00 9,1 7,5 17 9 29 16 NO 1026,0 4,0 0,0
18.11.2017 03:00:00 9,2 7,3 21 11 29 16 NO 1026,3 - 0,0
18.11.2017 02:00:00 9,6 7,5 16 9 36 20 ONO 1026,1 - 0,0
18.11.2017 01:00:00 9,6 7,7 24 13 40 22 NO 1026,2 13 0,0
18.11.2017 00:00:00 9,5 7,4 26 14 42 23 NO 1026,2 - 0,0
17.11.2017 23:00:00 9,2 7,1 27 14 50 27 NO 1026,2 - 0,0
17.11.2017 22:00:00 9,4 7,2 26 14 41 22 NO 1026,1 16 0,0
17.11.2017 21:00:00 9,7 7,3 26 14 44 24 NNO 1025,9 - 0,0
17.11.2017 20:00:00 10,2 7,1 28 15 43 23 NO 1025,6 - 0,0
17.11.2017 19:00:00 10,9 6,4 25 13 39 21 NO 1025,2 13 0,0
17.11.2017 18:00:00 11,7 6,0 27 15 42 23 NO 1025,0 - 0,0
17.11.2017 17:00:00 12,4 5,8 21 12 32 17 NO 1024,9 - 0,0
17.11.2017 16:00:00 12,5 5,9 19 10 30 16 NNO 1024,8 17 0,0
17.11.2017 15:00:00 12,4 5,5 17 9 25 13 NNO 1024,8 - 0,0
17.11.2017 14:00:00 11,8 5,9 10 5 19 11 ONO 1025,0 - 0,0
17.11.2017 13:00:00 10,5 5,5 13 7 25 13 NO 1025,5 - 0,0
17.11.2017 12:00:00 9,8 5,2 13 7 25 13 NO 1026,1 - 0,0
17.11.2017 11:00:00 9,0 5,0 16 9 25 14 NO 1026,1 - 0,0
17.11.2017 10:00:00 8,1 4,9 14 8 29 16 ONO 1026,0 - 0,0
17.11.2017 09:00:00 7,8 5,3 18 10 32 18 NO 1026,0 - 0,0
17.11.2017 08:00:00 7,8 5,1 22 12 34 18 NO 1025,6 - 0,0
17.11.2017 07:00:00 8,8 4,8 20 11 29 16 NO 1025,1 15 0,0
17.11.2017 06:00:00 8,7 4,7 11 6 27 15 ONO 1024,6 - 0,0
17.11.2017 05:00:00 8,9 4,9 13 7 29 15 ONO 1024,9 - 0,0
17.11.2017 04:00:00 8,9 4,3 15 8 29 15 O 1025,1 15 0,0
17.11.2017 03:00:00 9,4 5,0 16 9 32 17 ONO 1025,4 - 0,0
17.11.2017 02:00:00 9,2 5,9 19 11 30 16 NO 1025,2 - 0,0
17.11.2017 01:00:00 9,3 5,8 19 10 26 14 NO 1025,2 15 0,0
17.11.2017 00:00:00 9,8 5,8 18 10 27 15 NO 1025,0 - 0,0
16.11.2017 23:00:00 10,1 5,9 12 7 21 11 ONO 1024,8 - 0,0
16.11.2017 22:00:00 10,6 6,2 10 5 23 12 ONO 1024,8 16 0,0
16.11.2017 21:00:00 11,5 6,6 11 6 22 12 ONO 1024,5 - 0,0
16.11.2017 20:00:00 12,2 6,7 15 8 23 13 NO 1024,4 - 0,0
16.11.2017 19:00:00 12,8 7,9 14 7 20 11 NO 1024,1 11 0,0
16.11.2017 18:00:00 12,7 7,4 12 7 17 9 NO 1023,7 - 0,0
16.11.2017 17:00:00 12,4 6,4 10 5 14 7 NO 1023,4 - 0,0
16.11.2017 16:00:00 - - - - - - - - - -
16.11.2017 15:00:00 11,5 6,0 8 4 14 8 NNO 1023,5 - 0,0
16.11.2017 14:00:00 10,3 5,1 8 4 14 7 NO 1023,5 - 0,0
16.11.2017 13:00:00 9,6 4,8 8 5 13 7 NO 1023,5 13 0,0
16.11.2017 12:00:00 9,4 4,4 6 4 15 8 O 1023,9 - 0,0
16.11.2017 11:00:00 8,7 4,5 8 4 17 9 O 1024,0 - 0,0
16.11.2017 10:00:00 7,9 4,3 9 5 15 8 O 1023,9 14 0,0
16.11.2017 09:00:00 7,2 4,2 7 4 20 11 O 1023,5 - 0,0
16.11.2017 08:00:00 7,2 4,0 12 7 29 16 O 1022,5 - 0,0
16.11.2017 07:00:00 7,8 4,6 15 8 35 19 ONO 1022,0 - 0,0
16.11.2017 06:00:00 7,9 5,0 18 10 34 18 O 1021,6 - 0,0
16.11.2017 05:00:00 7,8 5,3 18 10 32 17 O 1021,6 - 0,0
16.11.2017 04:00:00 8,0 5,5 15 8 35 19 ONO 1022,0 15 0,0
16.11.2017 03:00:00 8,3 5,6 19 11 35 19 O 1022,1 - 0,0
16.11.2017 02:00:00 8,4 5,5 19 11 36 19 O 1022,3 - 0,0
16.11.2017 01:00:00 8,5 5,4 20 11 36 20 O 1022,7 - 0,0
16.11.2017 00:00:00 8,7 5,3 19 10 40 22 O 1023,1 - 0,0
15.11.2017 23:00:00 9,0 4,8 24 13 41 22 O 1023,1 - 0,0
15.11.2017 22:00:00 9,5 5,3 19 10 42 23 ONO 1023,2 16 0,0
15.11.2017 21:00:00 10,0 5,4 24 13 42 23 ONO 1023,3 - 0,0
15.11.2017 20:00:00 10,4 5,6 27 14 47 26 ONO 1023,3 - 0,0
15.11.2017 19:00:00 10,7 4,6 30 16 44 24 NO 1023,2 - 0,0
15.11.2017 18:00:00 11,3 3,6 31 17 44 24 NO 1023,2 - 0,0
15.11.2017 17:00:00 12,0 4,5 27 14 41 22 NO 1023,4 - 0,0
15.11.2017 16:00:00 12,2 3,9 24 13 34 18 NO 1023,7 17 0,0
15.11.2017 15:00:00 11,5 3,5 21 11 35 19 NO 1023,7 - 0,0
15.11.2017 14:00:00 11,1 3,4 16 9 34 19 ONO 1023,9 - 0,0
15.11.2017 13:00:00 10,0 4,4 18 10 32 17 ONO 1024,7 14 0,0
15.11.2017 12:00:00 8,8 3,8 14 8 32 18 ONO 1025,5 - 0,0
15.11.2017 11:00:00 8,2 4,4 15 8 34 18 ONO 1025,9 - 0,0
15.11.2017 10:00:00 8,2 4,4 15 8 30 16 ONO 1026,2 15 0,0
15.11.2017 09:00:00 7,6 4,7 16 9 30 16 ONO 1026,1 - 0,0
15.11.2017 08:00:00 6,8 4,3 14 8 32 17 ONO 1025,7 - 0,0
15.11.2017 07:00:00 7,2 5,2 21 11 32 18 NO 1026,1 - 0,0
15.11.2017 06:00:00 7,2 5,0 19 10 29 15 NO 1026,3 - 0,0
15.11.2017 05:00:00 7,4 5,0 12 6 25 14 ONO 1026,5 - 0,0
15.11.2017 04:00:00 7,2 5,0 11 6 21 12 O 1026,8 - 0,0
15.11.2017 03:00:00 7,1 5,1 9 5 18 10 O 1027,2 - 0,0
15.11.2017 02:00:00 5,7 3,2 6 3 16 9 ZO 1027,4 - 0,0
15.11.2017 01:00:00 6,0 3,2 7 4 13 7 O 1027,5 16 0,0
15.11.2017 00:00:00 7,1 3,0 8 5 22 12 ZO 1027,8 - 0,0
14.11.2017 23:00:00 8,6 3,8 10 5 23 13 O 1027,7 - 0,0
14.11.2017 22:00:00 8,5 3,1 8 5 24 13 O 1028,0 16 0,0
14.11.2017 21:00:00 9,7 3,6 16 9 27 14 NO 1027,8 - 0,0
14.11.2017 20:00:00 10,0 2,8 16 9 25 14 NO 1027,8 - 0,0
14.11.2017 19:00:00 9,8 3,3 16 9 22 12 NNO 1027,9 - 0,0
14.11.2017 18:00:00 10,0 2,8 13 7 23 12 NO 1027,6 - 0,0
14.11.2017 17:00:00 10,2 2,5 12 6 19 11 NO 1027,7 - 0,0
14.11.2017 16:00:00 10,3 3,6 13 7 19 10 NO 1027,8 20 0,0
14.11.2017 15:00:00 10,1 4,0 8 5 14 8 NNO 1028,1 - 0,0
14.11.2017 14:00:00 9,6 3,8 7 4 13 7 NNO 1028,4 - 0,0
14.11.2017 13:00:00 9,3 4,3 7 4 15 8 NO 1028,9 - 0,0
14.11.2017 12:00:00 9,4 5,0 8 4 15 8 ONO 1029,5 - 0,0
14.11.2017 11:00:00 8,9 4,9 8 4 18 10 ONO 1029,7 - 0,0
14.11.2017 10:00:00 8,0 4,8 10 5 17 9 O 1029,6 14 0,0
14.11.2017 09:00:00 6,9 4,4 8 4 16 9 O 1029,3 - 0,0
14.11.2017 08:00:00 6,6 3,9 8 5 14 7 O 1028,8 - 0,0
14.11.2017 07:00:00 6,9 4,0 7 4 16 9 ONO 1028,4 - 0,0
14.11.2017 06:00:00 7,1 3,7 9 5 20 11 ONO 1028,1 - 0,0
14.11.2017 05:00:00 7,5 3,7 10 5 24 13 ONO 1028,0 - 0,0
14.11.2017 04:00:00 8,0 3,8 15 8 25 14 NO 1028,0 - 0,0
14.11.2017 03:00:00 8,4 4,2 15 8 25 14 NO 1028,3 - 0,0
14.11.2017 02:00:00 8,6 3,6 16 9 31 17 NO 1028,2 - 0,0
14.11.2017 01:00:00 8,8 3,2 23 13 32 17 NNO 1028,6 - 0,0
14.11.2017 00:00:00 8,9 3,7 22 12 32 17 NNO 1028,7 - 0,0
13.11.2017 23:00:00 9,1 3,1 25 14 33 18 NNO 1028,7 - 0,0
13.11.2017 22:00:00 9,6 3,1 23 13 34 18 N 1028,4 - 0,0
13.11.2017 21:00:00 9,8 2,6 25 14 34 18 N 1028,4 - 0,0
13.11.2017 20:00:00 10,0 3,3 23 12 32 18 N 1028,2 - 0,0

tt = temperatuur
td = dauwpunt
ff = windsnelheid
fx = windstoten
dd = windrichting
ppp = luchtdruk
vv = zicht
rr = neerslag

Weerstations in de omgeving